Location: Presov
(49.0000°N, 21.2500°E)
Time: 12:55:56
(UTC+02:00)

ISS - Pass Details

Date: 10 July 2022
Orbit: 412 x 420 km, 51.6° (Epoch: 18 August)

Event Time Altitude Azimuth Distance (km) Brightness Sun altitude
Exits shadow 00:54:27 28° 261° (W) 812 -2.5 -18.7°
Maximum altitude 00:56:04 76° 343° (NNW) 435 -3.7 -18.6°
Drops below altitude 10° 00:59:26 10° 70° (ENE) 1,501 -0.7 -18.6°
Sets 01:01:33 0° 72° (ENE) 2,368 0.4 -18.6°
